Location: Newark
(31.5350°N, 35.0986°E)
Time: 21:33:25
(UTC+00:00)

SR - Pass Details

Date: 20 October 2019
Orbit: 573 x 882 km, 66.7° (Epoch: 20 November)

Event Time Altitude Azimuth Distance (km) Brightness Sun altitude
Rises 03:47:03 0° 351° (N) 3,464 ? -0.6°
Reaches altitude 10° 03:50:21 10° 9° (N) 2,539 ? 0.1°
Maximum altitude 03:54:24 19° 53° (NE) 1,989 ? 0.9°
Drops below altitude 10° 03:58:25 10° 96° (E) 2,518 ? 1.8°
Sets 04:01:39 0° 114° (ESE) 3,424 ? 2.4°
